Regional Weather Roundup
Issued by NWS

Home | Current Version | Previous Version | Graphics & Text | Print | Product List | Glossary On
Versions: 1 2 3 4 5 6 7 8 9 10 11 12 13 14 15 16 17 18 19 20 21 22 23 24 25 26 27 28 29 30 31 32 33 34 35 36 37 38 39 40 41 42 43 44 45 46 47 48 49 50
000
ASUS43 KOAX 311302
RWRNE

WEATHER ROUNDUP FOR NEBRASKA
NATIONAL WEATHER SERVICE OMAHA NE
800 AM CDT MON AUG 31 2015

NOTES: SATELLITE DATA IS BEING USED TO AUGMENT CLOUD COVER ABOVE
       12000 FEET.
       "FAIR" INDICATES FEW OR NO CLOUDS BELOW 12,000 FEET WITH NO
       SIGNIFICANT WEATHER AND/OR OBSTRUCTIONS TO VISIBILITY.

  * THESE STATIONS DO NOT REPORT WEATHER SUCH AS RAIN...SNOW OR FOG.

NEZ001>004-019>022-054>056-311400-
NEBRASKA PANHANDLE

CITY           SKY/WX    TMP DP  RH WIND       PRES   REMARKS
SCOTTSBLUFF    CLOUDY    74  51  44 NW16G24   29.95F
ALLIANCE       CLOUDY    62  52  69 W5        29.96R
CHADRON        MOCLDY    76  52  43 SW7       29.89R
KIMBALL        LGT RAIN  69  50  50 NW10      30.02R
SIDNEY         MOCLDY    64  50  60 NW9       30.00R
$$

NEZ057>060-069>072-079>082-311400-
SOUTHWEST NEBRASKA

CITY           SKY/WX    TMP DP  RH WIND       PRES   REMARKS
NORTH PLATTE   CLEAR     58  55  90 CALM      29.93R
IMPERIAL       CLEAR     57  50  77 SE3       29.94R
LEXINGTON      CLEAR     62  61  96 SE6       29.93R FOG
MC COOK        CLEAR     60  55  83 NW7       29.93R
OGALLALA       PTCLDY    55  49  81 CALM      29.94R
$$

NEZ005>010-023>029-035>040-094-311400-
NORTH CENTRAL NEBRASKA

CITY           SKY/WX    TMP DP  RH WIND       PRES   REMARKS
VALENTINE      PTCLDY    68  49  50 SW7       29.86R
AINSWORTH      CLEAR     65  57  76 S10       29.87R
BROKEN BOW     CLEAR     61  59  93 SE5       29.92R FOG
O`NEILL        SUNNY     64  64  97 S12       29.89S
ORD            CLOUDY    63  62  97 S5        29.90S FOG
THEDFORD       CLEAR     63  55  74 S13       29.90F
$$

NEZ041-046>049-061>064-073>077-083>087-311400-
SOUTH CENTRAL NEBRASKA

CITY           SKY/WX    TMP DP  RH WIND       PRES   REMARKS
GRAND ISLAND   SUNNY     63  62  97 S7        29.94S FOG
AURORA         FOG       62  62 100 SE6       29.95S VSB<1/4
HASTINGS       SUNNY     63  61  93 S7        29.94S FOG
HEBRON         SUNNY     64  63  99 S3        29.95R FOG
HOLDREGE       FOG       57  56  96 SE5       29.93S VSB 1/4
KEARNEY *      CLOUDY    57  55  94 S5        29.94R VSB<1/4
YORK           SUNNY     63  63 100 SE6       29.95S FOG
$$

NEZ011>018-030>034-042>045-311400-
NORTHEAST NEBRASKA

CITY           SKY/WX    TMP DP  RH WIND       PRES   REMARKS
NORFOLK        SUNNY     64  63  96 SE7       29.92S FOG
ALBION         FOG       61  59  94 SE5       29.93S VSB 1/4
BLAIR          FOG       66  64  94 S3        29.96R VSB<1/4
COLUMBUS *     SUNNY     64  57  77 S3        29.95S
FREMONT        MOSUNNY   66  65  95 CALM      29.96R FOG
TEKAMAH        FOG       63  63 100 SE3       29.95R VSB<1/4
$$

NEZ050>053-065>068-078-088>093-311400-
SOUTHEAST NEBRASKA

CITY           SKY/WX    TMP DP  RH WIND       PRES   REMARKS
LINCOLN        SUNNY     64  64 100 SE3       29.97R FOG
OMAHA EPPLEY   MOSUNNY   67  67 100 S6        29.96R FOG
BEATRICE       MOSUNNY   64  64  98 SE5       29.96S FOG
FALLS CITY     MOSUNNY   67  66  97 SE3       29.97R FOG
NEBRASKA CITY  FOG       63  63  99 S3        29.96F VSB<1/4
PLATTSMOUTH    PTSUNNY   67  65  95 SE5       29.97R FOG
$$

NEZ044-045-051>053-067-311400-
OMAHA AREA

CITY           SKY/WX    TMP DP  RH WIND       PRES   REMARKS
EPPLEY FIELD   MOSUNNY   67  67 100 S6        29.96R FOG
BLAIR          FOG       66  64  94 S3        29.96R VSB<1/4
FREMONT        MOSUNNY   66  65  95 CALM      29.96R FOG
MILLARD        FOG       66  65  97 SE5       29.96R VSB<1/4
OFFUTT AFB     FOG       66  66 100 CALM      29.96R VSB 1/4
PLATTSMOUTH    PTSUNNY   67  65  95 SE5       29.97R FOG
WAHOO          FOG       62  61  97 CALM      29.95S VSB<1/4
$$


USA.gov is the U.S. government's official web portal to all federal, state and local government web resources and services.